Find Kosmos-828

NORAD ID: 8892 Int'l Des: 1976-054 Owner: GUKOSR Country: SU operational
LEOCIRCULAR

Live Position

Loading 3D Globe...

About Kosmos-828

Description loading...

Upcoming Passes

Passes for default location (London). Set your location on the main map for personalized predictions.

Altitude History

Loading altitude history...

Two-Line Element Set

1 08892U 76054D 26105.61610553 .00000005 00000-0 13658-3 0 9991
2 08892 74.0014 323.2785 0035903 136.9653 284.8971 12.50987186275671
Epoch: Apr 15, 2026 • Age: 8 hours

Current Status

Altitude 1460.1 km
Velocity 7.14 km/s
Sub-Earth Point 64.03°N, 177.05°E
Type other

Most Searched